Time,TemperatureF,DewpointF,PressureIn,WindDirection,WindDirectionDegrees,WindSpeedMPH,WindSpeedGustMPH,Humidity,HourlyPrecipIn,Conditions,Clouds,dailyrainin,SoftwareType,DateUTC
2013-02-11 00:00:00,31.3,-2.2,25.34,NW,313,0.0,0.0,23,0.00,,---,0.00,VWS V13.01,2013-02-11 06:00:00,
2013-02-11 00:05:00,31.3,-2.2,25.34,NW,306,4.9,4.9,23,0.00,,---,0.00,VWS V13.01,2013-02-11 06:05:00,
2013-02-11 00:10:00,29.3,-3.9,25.34,NW,325,4.0,4.0,23,0.00,,---,0.00,VWS V13.01,2013-02-11 06:10:00,
2013-02-11 00:15:00,29.3,-3.9,25.34,NNW,327,4.0,4.0,23,0.00,,---,0.00,VWS V13.01,2013-02-11 06:15:00,
2013-02-11 00:20:00,29.3,-3.9,25.34,NW,317,4.9,4.9,23,0.00,,---,0.00,VWS V13.01,2013-02-11 06:20:00,
2013-02-11 00:25:00,29.3,-3.9,25.34,NW,316,3.6,3.6,23,0.00,,---,0.00,VWS V13.01,2013-02-11 06:25:00,
2013-02-11 00:30:00,29.5,-3.7,25.34,NW,317,4.5,4.5,23,0.00,,---,0.00,VWS V13.01,2013-02-11 06:30:00,
2013-02-11 00:35:00,29.5,-3.7,25.34,NW,318,2.7,2.7,23,0.00,,---,0.00,VWS V13.01,2013-02-11 06:35:00,
2013-02-11 00:40:00,29.5,-3.7,25.34,NW,321,3.1,3.1,23,0.00,,---,0.00,VWS V13.01,2013-02-11 06:40:00,
2013-02-11 00:45:00,29.5,-3.7,25.34,NNW,328,4.0,4.0,23,0.00,,---,0.00,VWS V13.01,2013-02-11 06:45:00,
2013-02-11 00:50:00,29.5,-3.7,25.34,NW,321,2.2,2.2,23,0.00,,---,0.00,VWS V13.01,2013-02-11 06:50:00,
2013-02-11 00:55:00,29.5,-3.7,25.34,NW,317,4.0,4.0,23,0.00,,---,0.00,VWS V13.01,2013-02-11 06:55:00,
2013-02-11 01:00:00,28.8,-4.3,25.34,NW,316,4.0,4.0,23,0.00,,---,0.00,VWS V13.01,2013-02-11 07:00:00,
2013-02-11 01:05:00,28.8,-4.3,25.34,NW,323,0.0,0.0,23,0.00,,---,0.00,VWS V13.01,2013-02-11 07:05:00,
2013-02-11 01:10:00,28.8,-4.3,25.34,NW,311,4.9,4.9,23,0.00,,---,0.00,VWS V13.01,2013-02-11 07:10:00,
2013-02-11 01:15:00,28.8,-4.3,25.34,NW,311,0.0,0.0,23,0.00,,---,0.00,VWS V13.01,2013-02-11 07:15:00,
2013-02-11 01:20:00,28.2,-4.8,25.34,NW,311,0.0,0.0,23,0.00,,---,0.00,VWS V13.01,2013-02-11 07:20:00,
2013-02-11 01:25:00,28.2,-4.8,25.34,NNW,330,3.1,3.1,23,0.00,,---,0.00,VWS V13.01,2013-02-11 07:25:00,
2013-02-11 01:30:00,28.4,-4.7,25.34,NW,314,4.5,4.5,23,0.00,,---,0.00,VWS V13.01,2013-02-11 07:30:00,
2013-02-11 01:35:00,28.4,-4.7,25.34,NW,311,2.7,2.7,23,0.00,,---,0.00,VWS V13.01,2013-02-11 07:35:00,
2013-02-11 01:40:00,28.4,-4.7,25.34,NW,316,3.6,3.6,23,0.00,,---,0.00,VWS V13.01,2013-02-11 07:40:00,
2013-02-11 01:45:00,29.5,-3.7,25.34,NW,314,2.2,2.2,23,0.00,,---,0.00,VWS V13.01,2013-02-11 07:45:00,
2013-02-11 01:50:00,29.5,-3.7,25.34,NW,314,0.0,0.0,23,0.00,,---,0.00,VWS V13.01,2013-02-11 07:50:00,
2013-02-11 01:55:00,29.5,-3.7,25.34,NNW,329,4.0,4.0,23,0.00,,---,0.00,VWS V13.01,2013-02-11 07:55:00,
2013-02-11 02:00:00,29.5,-3.7,25.34,NNW,329,0.0,0.0,23,0.00,,---,0.00,VWS V13.01,2013-02-11 08:00:00,
2013-02-11 02:05:00,29.5,-3.7,25.34,NNW,329,0.0,0.0,23,0.00,,---,0.00,VWS V13.01,2013-02-11 08:05:00,
2013-02-11 02:10:00,27.3,-5.6,25.34,NNW,329,2.7,2.7,23,0.00,,---,0.00,VWS V13.01,2013-02-11 08:10:00,
2013-02-11 02:15:00,27.3,-5.6,25.34,NNW,329,4.0,4.0,23,0.00,,---,0.00,VWS V13.01,2013-02-11 08:15:00,
2013-02-11 02:20:00,27.3,-5.6,25.34,NNW,330,3.1,3.1,23,0.00,,---,0.00,VWS V13.01,2013-02-11 08:20:00,
2013-02-11 02:25:00,27.3,-5.6,25.34,NNW,330,3.6,3.6,23,0.00,,---,0.00,VWS V13.01,2013-02-11 08:25:00,
2013-02-11 02:30:00,26.6,-3.7,25.34,NW,325,3.6,3.6,26,0.00,,---,0.00,VWS V13.01,2013-02-11 08:30:00,
2013-02-11 02:35:00,26.6,-3.7,25.34,NNW,327,3.1,3.1,26,0.00,,---,0.00,VWS V13.01,2013-02-11 08:35:00,
2013-02-11 02:40:00,26.6,-3.7,25.34,NW,326,4.0,4.0,26,0.00,,---,0.00,VWS V13.01,2013-02-11 08:40:00,
2013-02-11 02:45:00,26.6,-3.7,25.34,NNW,328,4.9,4.9,26,0.00,,---,0.00,VWS V13.01,2013-02-11 08:45:00,
2013-02-11 02:50:00,26.6,-3.7,25.34,NW,311,3.6,3.6,26,0.00,,---,0.00,VWS V13.01,2013-02-11 08:50:00,
2013-02-11 02:55:00,27.5,-2.9,25.34,WNW,298,4.0,4.0,26,0.00,,---,0.00,VWS V13.01,2013-02-11 08:55:00,
2013-02-11 03:00:00,27.5,-2.9,25.34,WNW,295,4.0,4.0,26,0.00,,---,0.00,VWS V13.01,2013-02-11 09:00:00,
2013-02-11 03:05:00,27.5,-2.9,25.34,NW,319,3.1,3.1,26,0.00,,---,0.00,VWS V13.01,2013-02-11 09:05:00,
2013-02-11 03:10:00,27.5,-2.9,25.34,NW,324,3.6,3.6,26,0.00,,---,0.00,VWS V13.01,2013-02-11 09:10:00,
2013-02-11 03:15:00,27.5,-2.9,25.34,NNW,334,3.6,3.6,26,0.00,,---,0.00,VWS V13.01,2013-02-11 09:15:00,
2013-02-11 03:20:00,26.1,-4.1,25.34,NNW,328,3.6,3.6,26,0.00,,---,0.00,VWS V13.01,2013-02-11 09:20:00,
2013-02-11 03:25:00,26.1,-4.1,25.34,NNW,327,2.7,2.7,26,0.00,,---,0.00,VWS V13.01,2013-02-11 09:25:00,
2013-02-11 03:30:00,26.1,-4.1,25.34,NNW,327,2.2,2.2,26,0.00,,---,0.00,VWS V13.01,2013-02-11 09:30:00,
2013-02-11 03:35:00,26.1,-4.1,25.34,NNW,327,2.7,3.6,26,0.00,,---,0.00,VWS V13.01,2013-02-11 09:35:00,
2013-02-11 03:40:00,26.4,-3.8,25.34,NNW,327,2.2,2.7,26,0.00,,---,0.00,VWS V13.01,2013-02-11 09:40:00,
2013-02-11 03:45:00,26.4,-3.8,25.31,NW,326,2.7,2.7,26,0.00,,---,0.00,VWS V13.01,2013-02-11 09:45:00,
2013-02-11 03:50:00,26.4,-3.8,25.31,NW,321,4.9,4.9,26,0.00,,---,0.00,VWS V13.01,2013-02-11 09:50:00,
2013-02-11 03:55:00,26.4,-3.8,25.31,NW,321,3.1,3.1,26,0.00,,---,0.00,VWS V13.01,2013-02-11 09:55:00,
2013-02-11 04:00:00,26.4,-3.8,25.31,NW,319,3.1,3.1,26,0.00,,---,0.00,VWS V13.01,2013-02-11 10:00:00,
2013-02-11 04:05:00,26.4,-3.8,25.31,NW,316,3.6,3.6,26,0.00,,---,0.00,VWS V13.01,2013-02-11 10:05:00,
2013-02-11 04:10:00,25.9,-4.3,25.28,NW,316,3.1,3.1,26,0.00,,---,0.00,VWS V13.01,2013-02-11 10:10:00,
2013-02-11 04:15:00,25.5,-4.6,25.28,NW,316,0.0,0.0,26,0.00,,---,0.00,VWS V13.01,2013-02-11 10:15:00,
2013-02-11 04:20:00,25.0,-2.8,25.28,NW,316,0.0,0.0,29,0.00,,---,0.00,VWS V13.01,2013-02-11 10:20:00,
2013-02-11 04:25:00,25.0,-2.8,25.28,NNW,328,3.6,3.6,29,0.00,,---,0.00,VWS V13.01,2013-02-11 10:25:00,
2013-02-11 04:30:00,25.2,-2.6,25.28,NNW,328,3.6,3.6,29,0.00,,---,0.00,VWS V13.01,2013-02-11 10:30:00,
2013-02-11 04:35:00,25.5,-2.3,25.28,NW,322,3.1,3.1,29,0.00,,---,0.00,VWS V13.01,2013-02-11 10:35:00,
2013-02-11 04:40:00,25.5,-2.3,25.28,NW,322,3.1,3.1,29,0.00,,---,0.00,VWS V13.01,2013-02-11 10:40:00,
2013-02-11 04:45:00,25.5,-0.9,25.28,NW,322,3.1,3.1,31,0.00,,---,0.00,VWS V13.01,2013-02-11 10:45:00,
2013-02-11 04:50:00,25.5,-0.9,25.28,NW,322,3.1,3.1,31,0.00,,---,0.00,VWS V13.01,2013-02-11 10:50:00,
2013-02-11 04:55:00,26.1,-0.4,25.28,NW,322,3.1,3.1,31,0.00,,---,0.00,VWS V13.01,2013-02-11 10:55:00,
2013-02-11 05:00:00,26.1,-0.4,25.28,NW,322,3.1,3.1,31,0.00,,---,0.00,VWS V13.01,2013-02-11 11:00:00,
2013-02-11 05:05:00,26.1,-0.4,25.28,NW,322,3.1,3.1,31,0.00,,---,0.00,VWS V13.01,2013-02-11 11:05:00,
2013-02-11 05:10:00,25.5,-0.9,25.28,NW,322,3.1,3.1,31,0.00,,---,0.00,VWS V13.01,2013-02-11 11:10:00,
2013-02-11 05:15:00,25.2,-0.5,25.28,NW,322,3.1,3.1,32,0.00,,---,0.00,VWS V13.01,2013-02-11 11:15:00,
2013-02-11 05:20:00,24.8,-0.9,25.28,NW,322,3.1,3.1,32,0.00,,---,0.00,VWS V13.01,2013-02-11 11:20:00,
2013-02-11 05:25:00,24.8,-0.9,25.28,NW,322,3.1,3.1,32,0.00,,---,0.00,VWS V13.01,2013-02-11 11:25:00,
2013-02-11 05:30:00,24.4,-1.2,25.28,NW,322,3.1,3.1,32,0.00,,---,0.00,VWS V13.01,2013-02-11 11:30:00,
2013-02-11 05:35:00,24.4,-1.2,25.28,NW,322,3.1,3.1,32,0.00,,---,0.00,VWS V13.01,2013-02-11 11:35:00,
2013-02-11 05:40:00,25.0,-0.7,25.28,NW,322,3.1,3.1,32,0.00,,---,0.00,VWS V13.01,2013-02-11 11:40:00,
2013-02-11 05:45:00,25.0,-0.7,25.28,NW,322,3.1,3.1,32,0.00,,---,0.00,VWS V13.01,2013-02-11 11:45:00,
2013-02-11 05:50:00,25.2,0.1,25.28,NW,322,3.1,3.1,33,0.00,,---,0.00,VWS V13.01,2013-02-11 11:50:00,
2013-02-11 05:55:00,25.2,-0.5,25.28,NW,322,3.1,3.1,32,0.00,,---,0.00,VWS V13.01,2013-02-11 11:55:00,
2013-02-11 06:00:00,25.2,-0.5,25.28,NW,322,3.1,3.1,32,0.00,,---,0.00,VWS V13.01,2013-02-11 12:00:00,
2013-02-11 06:05:00,24.8,-0.2,25.28,NW,322,3.1,3.1,33,0.00,,---,0.00,VWS V13.01,2013-02-11 12:05:00,
2013-02-11 06:10:00,24.8,-0.2,25.28,NW,322,3.1,3.1,33,0.00,,---,0.00,VWS V13.01,2013-02-11 12:10:00,
2013-02-11 06:15:00,24.8,-0.2,25.28,NW,322,3.1,3.1,33,0.00,,---,0.00,VWS V13.01,2013-02-11 12:15:00,
2013-02-11 06:20:00,25.0,0.6,25.28,NW,322,3.1,3.1,34,0.00,,---,0.00,VWS V13.01,2013-02-11 12:20:00,
2013-02-11 06:25:00,25.3,0.9,25.31,NW,322,3.1,3.1,34,0.00,,---,0.00,VWS V13.01,2013-02-11 12:25:00,
2013-02-11 06:30:00,25.5,1.1,25.31,NW,322,3.1,3.1,34,0.00,,---,0.00,VWS V13.01,2013-02-11 12:30:00,
2013-02-11 06:35:00,25.5,1.1,25.31,NW,322,3.1,3.1,34,0.00,,---,0.00,VWS V13.01,2013-02-11 12:35:00,
2013-02-11 06:40:00,25.3,0.9,25.34,NW,322,3.1,3.1,34,0.00,,---,0.00,VWS V13.01,2013-02-11 12:40:00,
2013-02-11 06:45:00,25.0,0.6,25.34,NW,322,3.1,3.1,34,0.00,,---,0.00,VWS V13.01,2013-02-11 12:45:00,
2013-02-11 06:50:00,24.8,0.4,25.34,NW,322,3.1,3.1,34,0.00,,---,0.00,VWS V13.01,2013-02-11 12:50:00,
2013-02-11 06:55:00,24.4,0.7,25.34,NW,322,3.1,3.1,35,0.00,,---,0.00,VWS V13.01,2013-02-11 12:55:00,
2013-02-11 07:00:00,24.4,0.7,25.34,NW,322,3.1,3.1,35,0.00,,---,0.43,VWS V13.01,2013-02-11 13:00:00,
2013-02-11 07:05:00,23.9,0.2,25.34,NW,322,3.1,3.1,35,0.00,,---,0.00,VWS V13.01,2013-02-11 13:05:00,
2013-02-11 07:10:00,23.7,0.1,25.37,NW,322,3.1,3.1,35,0.00,,---,0.00,VWS V13.01,2013-02-11 13:10:00,
2013-02-11 07:15:00,23.9,0.8,25.37,NW,322,3.1,3.1,36,0.00,,---,0.00,VWS V13.01,2013-02-11 13:15:00,
2013-02-11 07:20:00,23.9,1.4,25.37,NW,322,3.1,3.1,37,0.00,,---,0.00,VWS V13.01,2013-02-11 13:20:00,
2013-02-11 07:25:00,23.9,1.4,25.37,NW,322,3.1,3.1,37,0.00,,---,0.00,VWS V13.01,2013-02-11 13:25:00,
2013-02-11 07:30:00,24.4,2.5,25.37,NW,322,3.1,3.1,38,0.00,,---,0.00,VWS V13.01,2013-02-11 13:30:00,
2013-02-11 07:35:00,24.6,3.2,25.37,NW,322,3.1,3.1,39,0.00,,---,0.00,VWS V13.01,2013-02-11 13:35:00,
2013-02-11 07:40:00,24.8,3.4,25.37,NW,322,3.1,3.1,39,0.00,,---,0.00,VWS V13.01,2013-02-11 13:40:00,
2013-02-11 07:45:00,24.8,3.4,25.34,NW,322,3.1,3.1,39,0.00,,---,0.00,VWS V13.01,2013-02-11 13:45:00,
2013-02-11 07:50:00,24.8,3.4,25.34,NW,322,3.1,3.1,39,0.00,,---,0.00,VWS V13.01,2013-02-11 13:50:00,
2013-02-11 07:55:00,24.8,3.4,25.34,NW,322,3.1,3.1,39,0.00,,---,0.00,VWS V13.01,2013-02-11 13:55:00,
2013-02-11 08:00:00,24.8,3.4,25.34,NW,322,3.1,3.1,39,0.00,,---,0.00,VWS V13.01,2013-02-11 14:00:00,
2013-02-11 08:05:00,30.4,4.7,25.34,NW,322,3.1,3.1,33,0.00,,---,0.00,VWS V13.01,2013-02-11 14:05:00,
2013-02-11 08:10:00,30.4,4.7,25.34,NW,322,3.1,3.1,33,0.00,,---,0.00,VWS V13.01,2013-02-11 14:10:00,
2013-02-11 08:15:00,34.3,6.9,25.37,NW,322,3.1,3.1,31,0.00,,---,0.00,VWS V13.01,2013-02-11 14:15:00,
2013-02-11 08:20:00,38.7,9.2,25.37,NW,322,3.1,3.1,29,0.00,,---,0.00,VWS V13.01,2013-02-11 14:20:00,
2013-02-11 08:25:00,38.7,9.2,25.37,NW,322,3.1,3.1,29,0.00,,---,0.00,VWS V13.01,2013-02-11 14:25:00,
2013-02-11 08:30:00,42.8,9.4,25.37,NW,322,3.1,3.1,25,0.00,,---,0.00,VWS V13.01,2013-02-11 14:30:00,
2013-02-11 08:35:00,42.8,9.4,25.37,NW,322,3.1,3.1,25,0.00,,---,0.00,VWS V13.01,2013-02-11 14:35:00,
2013-02-11 08:40:00,45.7,9.0,25.40,NW,322,3.1,3.1,22,0.00,,---,0.00,VWS V13.01,2013-02-11 14:40:00,
2013-02-11 08:45:00,47.3,10.4,25.40,NW,322,3.1,3.1,22,0.00,,---,0.00,VWS V13.01,2013-02-11 14:45:00,
2013-02-11 08:50:00,47.8,10.9,25.40,NW,322,3.1,3.1,22,0.00,,---,0.00,VWS V13.01,2013-02-11 14:50:00,
2013-02-11 08:55:00,50.5,12.1,25.40,NW,307,0.0,0.0,21,0.00,,---,0.00,VWS V13.01,2013-02-11 14:55:00,
2013-02-11 09:00:00,50.5,12.1,25.37,NW,307,0.0,0.0,21,0.00,,---,0.00,VWS V13.01,2013-02-11 15:00:00,
2013-02-11 09:05:00,55.4,15.0,25.37,NW,307,0.0,0.0,20,0.00,,---,0.00,VWS V13.01,2013-02-11 15:05:00,
2013-02-11 09:10:00,55.4,15.0,25.37,NW,307,0.0,0.0,20,0.00,,---,0.00,VWS V13.01,2013-02-11 15:10:00,
2013-02-11 09:15:00,58.8,16.7,25.37,NW,307,0.0,0.0,19,0.00,,---,0.00,VWS V13.01,2013-02-11 15:15:00,
2013-02-11 09:20:00,61.9,19.2,25.37,NW,307,0.0,0.0,19,0.00,,---,0.00,VWS V13.01,2013-02-11 15:20:00,
2013-02-11 09:25:00,61.9,19.2,25.37,NW,307,0.0,0.0,19,0.00,,---,0.00,VWS V13.01,2013-02-11 15:25:00,
2013-02-11 09:30:00,64.0,19.7,25.40,NW,310,0.0,0.0,18,0.00,,---,0.00,VWS V13.01,2013-02-11 15:30:00,
2013-02-11 09:35:00,64.0,19.7,25.40,NW,310,0.0,0.0,18,0.00,,---,0.00,VWS V13.01,2013-02-11 15:35:00,
2013-02-11 09:40:00,64.0,19.7,25.40,NW,310,0.0,0.0,18,0.00,,---,0.00,VWS V13.01,2013-02-11 15:40:00,
2013-02-11 09:45:00,63.1,19.0,25.40,South,181,4.0,4.0,18,0.00,,---,0.00,VWS V13.01,2013-02-11 15:45:00,
2013-02-11 09:50:00,61.2,18.6,25.40,South,181,4.0,4.0,19,0.00,,---,0.00,VWS V13.01,2013-02-11 15:50:00,
2013-02-11 09:55:00,63.3,19.1,25.37,South,179,0.0,0.0,18,0.00,,---,0.00,VWS V13.01,2013-02-11 15:55:00,
2013-02-11 10:00:00,63.3,19.1,25.37,South,179,0.0,0.0,18,0.00,,---,0.00,VWS V13.01,2013-02-11 16:00:00,
2013-02-11 10:05:00,66.4,20.3,25.37,South,172,5.4,5.4,17,0.00,,---,0.00,VWS V13.01,2013-02-11 16:05:00,
2013-02-11 10:10:00,66.4,20.3,25.37,SW,214,2.7,5.4,17,0.00,,---,0.00,VWS V13.01,2013-02-11 16:10:00,
2013-02-11 10:15:00,66.9,20.7,25.37,SW,214,2.7,2.7,17,0.00,,---,0.00,VWS V13.01,2013-02-11 16:15:00,
2013-02-11 10:20:00,66.9,20.7,25.37,SW,214,2.7,2.7,17,0.00,,---,0.00,VWS V13.01,2013-02-11 16:20:00,
2013-02-11 10:25:00,67.6,21.3,25.37,SW,214,2.7,2.7,17,0.00,,---,0.00,VWS V13.01,2013-02-11 16:25:00,
2013-02-11 10:30:00,68.4,21.9,25.37,East,88,0.0,0.0,17,0.00,,---,0.00,VWS V13.01,2013-02-11 16:30:00,
2013-02-11 10:35:00,68.4,21.9,25.37,East,88,0.0,0.0,17,0.00,,---,0.00,VWS V13.01,2013-02-11 16:35:00,
2013-02-11 10:40:00,65.5,20.9,25.37,WNW,292,10.1,10.1,18,0.00,,---,0.00,VWS V13.01,2013-02-11 16:40:00,
2013-02-11 10:45:00,65.5,20.9,25.37,West,266,7.6,7.6,18,0.00,,---,0.00,VWS V13.01,2013-02-11 16:45:00,
2013-02-11 10:50:00,66.0,21.3,25.37,West,266,7.6,7.6,18,0.00,,---,0.00,VWS V13.01,2013-02-11 16:50:00,
2013-02-11 10:55:00,67.5,21.2,25.37,WSW,256,8.1,8.1,17,0.00,,---,0.00,VWS V13.01,2013-02-11 16:55:00,
2013-02-11 11:00:00,67.5,21.2,25.34,WSW,256,8.1,8.1,17,0.00,,---,0.00,VWS V13.01,2013-02-11 17:00:00,
2013-02-11 11:05:00,65.8,21.2,25.34,WSW,258,15.4,15.4,18,0.00,,---,0.00,VWS V13.01,2013-02-11 17:05:00,
2013-02-11 11:10:00,65.8,21.2,25.34,WSW,258,15.4,15.4,18,0.00,,---,0.00,VWS V13.01,2013-02-11 17:10:00,
2013-02-11 11:15:00,64.4,20.0,25.34,WSW,258,15.4,15.4,18,0.00,,---,0.00,VWS V13.01,2013-02-11 17:15:00,
2013-02-11 11:20:00,64.4,20.0,25.34,SW,235,8.1,8.1,18,0.00,,---,0.00,VWS V13.01,2013-02-11 17:20:00,
2013-02-11 11:25:00,66.0,21.3,25.34,WSW,257,8.3,8.3,18,0.00,,---,0.00,VWS V13.01,2013-02-11 17:25:00,
2013-02-11 11:30:00,67.1,20.9,25.34,WNW,292,8.7,8.7,17,0.00,,---,0.00,VWS V13.01,2013-02-11 17:30:00,
2013-02-11 11:35:00,67.1,20.9,25.34,WNW,292,8.7,8.7,17,0.00,,---,0.00,VWS V13.01,2013-02-11 17:35:00,
2013-02-11 11:40:00,64.9,20.4,25.34,West,279,10.1,10.1,18,0.00,,---,0.00,VWS V13.01,2013-02-11 17:40:00,
2013-02-11 11:45:00,64.9,20.4,25.31,WSW,242,8.1,10.1,18,0.00,,---,0.00,VWS V13.01,2013-02-11 17:45:00,
2013-02-11 11:50:00,65.3,20.7,25.31,WSW,242,8.1,8.1,18,0.00,,---,0.00,VWS V13.01,2013-02-11 17:50:00,
2013-02-11 11:55:00,65.3,20.7,25.31,West,266,8.7,8.7,18,0.00,,---,0.00,VWS V13.01,2013-02-11 17:55:00,
2013-02-11 12:00:00,66.7,20.6,25.31,West,266,8.7,8.7,17,0.00,,---,0.00,VWS V13.01,2013-02-11 18:00:00,
2013-02-11 12:05:00,66.2,20.1,25.31,WSW,246,8.1,8.1,17,0.00,,---,0.00,VWS V13.01,2013-02-11 18:05:00,
2013-02-11 12:10:00,66.2,20.1,25.31,WSW,252,13.2,13.2,17,0.00,,---,0.00,VWS V13.01,2013-02-11 18:10:00,
2013-02-11 12:15:00,66.6,20.4,25.31,WSW,257,9.6,9.6,17,0.00,,---,0.00,VWS V13.01,2013-02-11 18:15:00,
2013-02-11 12:20:00,66.6,20.4,25.31,WSW,256,6.3,9.6,17,0.00,,---,0.00,VWS V13.01,2013-02-11 18:20:00,
2013-02-11 12:25:00,68.7,22.2,25.28,WSW,256,6.3,6.3,17,0.00,,---,0.00,VWS V13.01,2013-02-11 18:25:00,
2013-02-11 12:30:00,68.4,21.9,25.28,West,267,14.1,14.1,17,0.00,,---,0.00,VWS V13.01,2013-02-11 18:30:00,
2013-02-11 12:35:00,68.0,21.6,25.28,West,267,14.1,14.1,17,0.00,,---,0.00,VWS V13.01,2013-02-11 18:35:00,
2013-02-11 12:40:00,68.0,21.6,25.31,WSW,244,6.3,6.3,17,0.00,,---,0.00,VWS V13.01,2013-02-11 18:40:00,
2013-02-11 12:45:00,68.0,21.6,25.31,WSW,244,6.3,6.3,17,0.00,,---,0.00,VWS V13.01,2013-02-11 18:45:00,
2013-02-11 12:50:00,68.7,22.2,25.31,WNW,290,8.1,8.1,17,0.00,,---,0.00,VWS V13.01,2013-02-11 18:50:00,
2013-02-11 12:55:00,68.7,22.2,25.31,WNW,282,9.6,9.6,17,0.00,,---,0.00,VWS V13.01,2013-02-11 18:55:00,
2013-02-11 13:00:00,69.4,22.8,25.28,WNW,282,9.6,9.6,17,0.00,,---,0.00,VWS V13.01,2013-02-11 19:00:00,
2013-02-11 13:05:00,69.1,22.5,25.28,WNW,282,9.6,9.6,17,0.00,,---,0.00,VWS V13.01,2013-02-11 19:05:00,
2013-02-11 13:10:00,69.1,22.5,25.28,WNW,282,9.6,9.6,17,0.00,,---,0.00,VWS V13.01,2013-02-11 19:10:00,
2013-02-11 13:15:00,66.4,20.3,25.28,SW,230,14.5,14.5,17,0.00,,---,0.00,VWS V13.01,2013-02-11 19:15:00,
2013-02-11 13:21:00,66.4,20.3,25.28,NW,304,9.6,9.6,17,0.00,,---,0.00,VWS V13.01,2013-02-11 19:21:00,
2013-02-11 13:26:00,70.2,23.4,25.28,NW,315,11.4,11.4,17,0.00,,---,0.00,VWS V13.01,2013-02-11 19:26:00,
2013-02-11 13:31:00,68.0,21.6,25.31,West,268,11.9,11.9,17,0.00,,---,0.00,VWS V13.01,2013-02-11 19:31:00,
2013-02-11 13:36:00,68.7,22.2,25.31,West,268,11.9,11.9,17,0.00,,---,0.00,VWS V13.01,2013-02-11 19:36:00,
2013-02-11 13:41:00,69.4,22.8,25.31,West,270,15.9,15.9,17,0.00,,---,0.00,VWS V13.01,2013-02-11 19:41:00,
2013-02-11 13:46:00,69.4,22.8,25.31,WNW,287,15.0,15.0,17,0.00,,---,0.00,VWS V13.01,2013-02-11 19:46:00,
2013-02-11 13:51:00,69.4,22.8,25.31,WNW,287,15.0,15.0,17,0.00,,---,0.00,VWS V13.01,2013-02-11 19:51:00,
2013-02-11 13:56:00,69.4,22.8,25.28,WNW,296,13.2,13.2,17,0.00,,---,0.00,VWS V13.01,2013-02-11 19:56:00,
2013-02-11 14:01:00,69.8,23.1,25.28,NW,308,10.5,10.5,17,0.00,,---,0.00,VWS V13.01,2013-02-11 20:01:00,
2013-02-11 14:06:00,70.0,23.2,25.28,WNW,284,15.4,15.4,17,0.00,,---,0.00,VWS V13.01,2013-02-11 20:06:00,
2013-02-11 14:11:00,70.0,23.2,25.28,West,269,10.5,10.5,17,0.00,,---,0.00,VWS V13.01,2013-02-11 20:11:00,
2013-02-11 14:16:00,69.4,22.8,25.28,WNW,295,8.7,8.7,17,0.00,,---,0.00,VWS V13.01,2013-02-11 20:16:00,
2013-02-11 14:21:00,69.4,22.8,25.28,WNW,295,10.5,10.5,17,0.00,,---,0.00,VWS V13.01,2013-02-11 20:21:00,
2013-02-11 14:26:00,69.4,22.8,25.28,NW,310,11.0,11.0,17,0.00,,---,0.00,VWS V13.01,2013-02-11 20:26:00,
2013-02-11 14:31:00,69.4,22.8,25.28,WNW,287,8.7,13.2,17,0.00,,---,0.00,VWS V13.01,2013-02-11 20:31:00,
2013-02-11 14:36:00,69.4,22.8,25.28,NW,311,10.1,10.1,17,0.00,,---,0.00,VWS V13.01,2013-02-11 20:36:00,
2013-02-11 14:41:00,68.9,22.3,25.28,WNW,284,13.2,13.2,17,0.00,,---,0.00,VWS V13.01,2013-02-11 20:41:00,
2013-02-11 14:46:00,68.9,22.3,25.28,WSW,258,8.3,13.2,17,0.00,,---,0.00,VWS V13.01,2013-02-11 20:46:00,
2013-02-11 14:51:00,68.9,22.3,25.28,West,279,13.2,13.2,17,0.00,,---,0.00,VWS V13.01,2013-02-11 20:51:00,
2013-02-11 14:56:00,68.9,22.3,25.28,West,273,10.5,10.5,17,0.00,,---,0.00,VWS V13.01,2013-02-11 20:56:00,
2013-02-11 15:01:00,67.8,21.5,25.28,West,277,8.3,8.3,17,0.00,,---,0.00,VWS V13.01,2013-02-11 21:01:00,
2013-02-11 15:06:00,67.8,21.5,25.28,West,272,11.9,11.9,17,0.00,,---,0.00,VWS V13.01,2013-02-11 21:06:00,
2013-02-11 15:11:00,67.8,21.5,25.28,West,271,8.1,8.3,17,0.00,,---,0.00,VWS V13.01,2013-02-11 21:11:00,
2013-02-11 15:16:00,67.8,21.5,25.28,West,266,12.3,13.2,17,0.00,,---,0.00,VWS V13.01,2013-02-11 21:16:00,
2013-02-11 15:21:00,67.8,21.5,25.28,WNW,292,8.1,8.1,17,0.00,,---,0.00,VWS V13.01,2013-02-11 21:21:00,
2013-02-11 15:26:00,66.0,21.3,25.25,WNW,298,15.4,15.4,18,0.00,,---,0.00,VWS V13.01,2013-02-11 21:26:00,
2013-02-11 15:31:00,66.0,21.3,25.25,WNW,283,15.0,15.0,18,0.00,,---,0.00,VWS V13.01,2013-02-11 21:31:00,
2013-02-11 15:36:00,66.0,21.3,25.25,WNW,292,13.2,13.2,18,0.00,,---,0.00,VWS V13.01,2013-02-11 21:36:00,
2013-02-11 15:41:00,66.0,21.3,25.25,West,271,8.1,8.1,18,0.00,,---,0.00,VWS V13.01,2013-02-11 21:41:00,
2013-02-11 15:46:00,66.0,21.3,25.25,NW,308,6.3,6.3,18,0.00,,---,0.00,VWS V13.01,2013-02-11 21:46:00,
2013-02-11 15:51:00,65.8,21.2,25.25,WSW,241,11.0,11.0,18,0.00,,---,0.00,VWS V13.01,2013-02-11 21:51:00,
2013-02-11 15:56:00,65.8,21.2,25.25,WNW,299,10.1,12.8,18,0.00,,---,0.00,VWS V13.01,2013-02-11 21:56:00,
2013-02-11 16:01:00,61.9,19.2,25.25,WSW,256,10.1,10.1,19,0.00,,---,0.00,VWS V13.01,2013-02-11 22:01:00,
2013-02-11 16:06:00,61.9,19.2,25.25,West,263,8.1,8.1,19,0.00,,---,0.00,VWS V13.01,2013-02-11 22:06:00,
2013-02-11 16:11:00,60.6,18.2,25.25,WSW,240,5.8,8.1,19,0.00,,---,0.00,VWS V13.01,2013-02-11 22:11:00,
2013-02-11 16:16:00,60.6,18.2,25.25,WSW,249,8.1,8.1,19,0.00,,---,0.00,VWS V13.01,2013-02-11 22:16:00,
2013-02-11 16:21:00,60.6,18.2,25.25,West,272,11.0,11.0,19,0.00,,---,0.00,VWS V13.01,2013-02-11 22:21:00,
2013-02-11 16:26:00,60.6,18.2,25.25,WNW,300,5.8,5.8,19,0.00,,---,0.00,VWS V13.01,2013-02-11 22:26:00,
2013-02-11 16:31:00,60.6,18.2,25.25,West,281,7.6,8.7,19,0.00,,---,0.00,VWS V13.01,2013-02-11 22:31:00,
2013-02-11 16:36:00,63.3,19.1,25.25,West,279,11.0,11.0,18,0.00,,---,0.00,VWS V13.01,2013-02-11 22:36:00,
2013-02-11 16:41:00,63.3,19.1,25.25,WSW,255,7.6,7.6,18,0.00,,---,0.00,VWS V13.01,2013-02-11 22:41:00,
2013-02-11 16:46:00,63.3,19.1,25.25,NW,318,7.6,7.6,18,0.00,,---,0.00,VWS V13.01,2013-02-11 22:46:00,
2013-02-11 16:51:00,63.3,19.1,25.25,WNW,286,10.1,10.1,18,0.00,,---,0.00,VWS V13.01,2013-02-11 22:51:00,
2013-02-11 16:56:00,62.4,19.6,25.25,WSW,250,6.7,6.7,19,0.00,,---,0.00,VWS V13.01,2013-02-11 22:56:00,
2013-02-11 17:01:00,62.2,19.5,25.25,SW,230,8.3,8.7,19,0.00,,---,0.00,VWS V13.01,2013-02-11 23:01:00,
2013-02-11 17:06:00,62.2,19.5,25.25,WNW,287,11.0,11.0,19,0.00,,---,0.00,VWS V13.01,2013-02-11 23:06:00,
2013-02-11 17:11:00,62.2,19.5,25.25,West,264,6.3,6.3,19,0.00,,---,0.00,VWS V13.01,2013-02-11 23:11:00,
2013-02-11 17:16:00,62.2,19.5,25.25,West,269,11.9,11.9,19,0.00,,---,0.00,VWS V13.01,2013-02-11 23:16:00,
2013-02-11 17:21:00,62.8,18.7,25.25,West,275,10.5,10.5,18,0.00,,---,0.00,VWS V13.01,2013-02-11 23:21:00,
2013-02-11 17:26:00,62.8,18.7,25.25,WSW,250,8.1,8.1,18,0.00,,---,0.00,VWS V13.01,2013-02-11 23:26:00,
2013-02-11 17:31:00,62.8,18.7,25.25,SW,224,9.6,9.6,18,0.00,,---,0.00,VWS V13.01,2013-02-11 23:31:00,
2013-02-11 17:36:00,62.8,18.7,25.25,WSW,240,8.7,8.7,18,0.00,,---,0.00,VWS V13.01,2013-02-11 23:36:00,
2013-02-11 17:41:00,62.8,18.7,25.25,WSW,240,14.1,14.1,18,0.00,,---,0.00,VWS V13.01,2013-02-11 23:41:00,
2013-02-11 17:46:00,59.7,17.4,25.25,WSW,237,7.6,8.3,19,0.00,,---,0.00,VWS V13.01,2013-02-11 23:46:00,
2013-02-11 17:51:00,59.7,17.4,25.25,WSW,252,8.7,8.7,19,0.00,,---,0.00,VWS V13.01,2013-02-11 23:51:00,
2013-02-11 17:56:00,57.9,13.4,25.25,SW,236,8.3,8.3,17,0.00,,---,0.00,VWS V13.01,2013-02-11 23:56:00,
2013-02-11 18:01:00,57.9,13.4,25.25,SW,228,8.1,8.1,17,0.00,,---,0.00,VWS V13.01,2013-02-12 00:01:00,
2013-02-11 18:06:00,57.9,13.4,25.25,WSW,238,5.8,5.8,17,0.00,,---,0.00,VWS V13.01,2013-02-12 00:06:00,
2013-02-11 18:11:00,58.3,13.7,25.25,West,260,11.0,11.0,17,0.00,,---,0.00,VWS V13.01,2013-02-12 00:11:00,
2013-02-11 18:16:00,58.3,13.7,25.25,WSW,250,12.8,12.8,17,0.00,,---,0.00,VWS V13.01,2013-02-12 00:16:00,
2013-02-11 18:21:00,58.3,13.7,25.25,WNW,299,8.7,8.7,17,0.00,,---,0.00,VWS V13.01,2013-02-12 00:21:00,
2013-02-11 18:26:00,58.3,13.7,25.25,WNW,289,10.1,10.1,17,0.00,,---,0.00,VWS V13.01,2013-02-12 00:26:00,
2013-02-11 18:31:00,57.7,13.2,25.25,NW,315,11.0,11.0,17,0.00,,---,0.00,VWS V13.01,2013-02-12 00:31:00,
2013-02-11 18:36:00,57.7,13.2,25.25,WNW,298,12.8,12.8,17,0.00,,---,0.00,VWS V13.01,2013-02-12 00:36:00,
2013-02-11 18:41:00,57.7,13.2,25.25,NNW,327,8.7,8.7,17,0.00,,---,0.00,VWS V13.01,2013-02-12 00:41:00,
2013-02-11 18:46:00,57.7,13.2,25.25,NW,326,8.3,8.3,17,0.00,,---,0.00,VWS V13.01,2013-02-12 00:46:00,
2013-02-11 18:51:00,57.7,13.2,25.25,NW,319,7.6,7.6,17,0.00,,---,0.00,VWS V13.01,2013-02-12 00:51:00,
2013-02-11 18:56:00,54.3,11.7,25.25,NW,307,5.4,5.4,18,0.00,,---,0.00,VWS V13.01,2013-02-12 00:56:00,
2013-02-11 19:01:00,54.3,11.7,25.25,NW,321,3.6,3.6,18,0.00,,---,0.00,VWS V13.01,2013-02-12 01:01:00,
2013-02-11 19:06:00,54.3,11.7,25.25,NW,326,3.1,3.1,18,0.00,,---,0.00,VWS V13.01,2013-02-12 01:06:00,
2013-02-11 19:11:00,53.2,14.3,25.25,West,277,2.2,2.2,21,0.00,,---,0.00,VWS V13.01,2013-02-12 01:11:00,
2013-02-11 19:16:00,52.0,13.3,25.25,West,277,0.0,0.0,21,0.00,,---,0.00,VWS V13.01,2013-02-12 01:16:00,
2013-02-11 19:21:00,51.6,13.0,25.25,West,277,0.0,0.0,21,0.00,,---,0.00,VWS V13.01,2013-02-12 01:21:00,
2013-02-11 19:26:00,51.3,12.7,25.22,West,277,0.0,0.0,21,0.00,,---,0.00,VWS V13.01,2013-02-12 01:26:00,
2013-02-11 19:31:00,51.3,12.7,25.22,West,277,0.0,0.0,21,0.00,,---,0.00,VWS V13.01,2013-02-12 01:31:00,
2013-02-11 19:37:00,51.1,12.5,25.22,West,277,0.0,0.0,21,0.00,,---,0.00,VWS V13.01,2013-02-12 01:37:00,
2013-02-11 19:42:00,50.7,12.2,25.25,West,277,0.0,0.0,21,0.00,,---,0.00,VWS V13.01,2013-02-12 01:42:00,
2013-02-11 19:47:00,50.7,12.2,25.25,West,277,0.0,0.0,21,0.00,,---,0.00,VWS V13.01,2013-02-12 01:47:00,
2013-02-11 19:52:00,50.0,11.6,25.25,West,277,0.0,0.0,21,0.00,,---,0.00,VWS V13.01,2013-02-12 01:52:00,
2013-02-11 19:57:00,50.0,11.6,25.25,West,277,0.0,0.0,21,0.00,,---,0.00,VWS V13.01,2013-02-12 01:57:00,
2013-02-11 20:02:00,48.7,10.6,25.25,West,277,0.0,0.0,21,0.00,,---,0.00,VWS V13.01,2013-02-12 02:02:00,
2013-02-11 20:07:00,47.7,10.7,25.25,West,277,0.0,0.0,22,0.00,,---,0.00,VWS V13.01,2013-02-12 02:07:00,
2013-02-11 20:12:00,47.7,10.7,25.25,West,277,0.0,0.0,22,0.00,,---,0.00,VWS V13.01,2013-02-12 02:12:00,
2013-02-11 20:17:00,46.8,9.9,25.25,West,277,0.0,0.0,22,0.00,,---,0.00,VWS V13.01,2013-02-12 02:17:00,
2013-02-11 20:22:00,46.8,9.9,25.25,West,277,0.0,0.0,22,0.00,,---,0.00,VWS V13.01,2013-02-12 02:22:00,
2013-02-11 20:27:00,46.0,12.2,25.25,West,277,0.0,0.0,25,0.00,,---,0.00,VWS V13.01,2013-02-12 02:27:00,
2013-02-11 20:32:00,46.2,12.4,25.25,West,277,0.0,0.0,25,0.00,,---,0.00,VWS V13.01,2013-02-12 02:32:00,
2013-02-11 20:37:00,45.5,11.7,25.25,West,277,0.0,0.0,25,0.00,,---,0.00,VWS V13.01,2013-02-12 02:37:00,
2013-02-11 20:42:00,45.1,11.4,25.28,West,277,0.0,0.0,25,0.00,,---,0.00,VWS V13.01,2013-02-12 02:42:00,
2013-02-11 20:47:00,45.1,11.4,25.28,West,277,0.0,0.0,25,0.00,,---,0.00,VWS V13.01,2013-02-12 02:47:00,
2013-02-11 20:52:00,44.6,11.0,25.28,West,277,0.0,0.0,25,0.00,,---,0.00,VWS V13.01,2013-02-12 02:52:00,
2013-02-11 20:57:00,44.6,11.0,25.28,West,277,0.0,0.0,25,0.00,,---,0.00,VWS V13.01,2013-02-12 02:57:00,
2013-02-11 21:02:00,43.7,12.8,25.28,West,277,0.0,0.0,28,0.00,,---,0.00,VWS V13.01,2013-02-12 03:02:00,
2013-02-11 21:07:00,42.3,11.5,25.28,West,277,0.0,0.0,28,0.00,,---,0.00,VWS V13.01,2013-02-12 03:07:00,
2013-02-11 21:12:00,42.3,11.5,25.28,West,277,0.0,0.0,28,0.00,,---,0.00,VWS V13.01,2013-02-12 03:12:00,
2013-02-11 21:17:00,42.1,11.3,25.28,West,277,0.0,0.0,28,0.00,,---,0.00,VWS V13.01,2013-02-12 03:17:00,
2013-02-11 21:22:00,42.1,11.3,25.28,West,277,0.0,0.0,28,0.00,,---,0.00,VWS V13.01,2013-02-12 03:22:00,
2013-02-11 21:28:00,42.1,11.3,25.25,West,277,0.0,0.0,28,0.00,,---,0.00,VWS V13.01,2013-02-12 03:28:00,
2013-02-11 21:33:00,42.1,11.3,25.25,West,277,0.0,0.0,28,0.00,,---,0.00,VWS V13.01,2013-02-12 03:33:00,
2013-02-11 21:38:00,42.8,12.0,25.25,West,277,0.0,0.0,28,0.00,,---,0.00,VWS V13.01,2013-02-12 03:38:00,
2013-02-11 21:43:00,42.1,11.3,25.25,West,277,0.0,0.0,28,0.00,,---,0.00,VWS V13.01,2013-02-12 03:43:00,
2013-02-11 21:48:00,42.1,11.3,25.25,West,277,0.0,0.0,28,0.00,,---,0.00,VWS V13.01,2013-02-12 03:48:00,
2013-02-11 21:53:00,42.4,11.7,25.25,West,277,0.0,0.0,28,0.00,,---,0.00,VWS V13.01,2013-02-12 03:53:00,
2013-02-11 21:58:00,42.4,11.7,25.25,West,277,0.0,0.0,28,0.00,,---,0.00,VWS V13.01,2013-02-12 03:58:00,
2013-02-11 22:03:00,41.4,10.7,25.25,West,277,0.0,0.0,28,0.00,,---,0.00,VWS V13.01,2013-02-12 04:03:00,
2013-02-11 22:08:00,41.4,10.7,25.25,West,277,0.0,0.0,28,0.00,,---,0.00,VWS V13.01,2013-02-12 04:08:00,
2013-02-11 22:13:00,40.1,10.4,25.25,West,277,0.0,0.0,29,0.00,,---,0.00,VWS V13.01,2013-02-12 04:13:00,
2013-02-11 22:18:00,38.7,9.9,25.25,North,353,0.0,0.0,30,0.00,,---,0.00,VWS V13.01,2013-02-12 04:18:00,
2013-02-11 22:23:00,38.7,9.9,25.25,North,353,0.0,0.0,30,0.00,,---,0.00,VWS V13.01,2013-02-12 04:23:00,
2013-02-11 22:28:00,37.9,10.0,25.25,North,353,0.0,0.0,31,0.00,,---,0.00,VWS V13.01,2013-02-12 04:28:00,
2013-02-11 22:33:00,37.9,10.0,25.25,North,353,0.0,0.0,31,0.00,,---,0.00,VWS V13.01,2013-02-12 04:33:00,
2013-02-11 22:38:00,38.3,10.3,25.25,North,353,0.0,0.0,31,0.00,,---,0.00,VWS V13.01,2013-02-12 04:38:00,
2013-02-11 22:43:00,37.9,9.3,25.25,North,353,3.6,3.6,30,0.00,,---,0.00,VWS V13.01,2013-02-12 04:43:00,
2013-02-11 22:48:00,37.8,9.1,25.25,North,353,3.6,3.6,30,0.00,,---,0.00,VWS V13.01,2013-02-12 04:48:00,
2013-02-11 22:53:00,37.2,9.4,25.25,NNW,337,3.6,3.6,31,0.00,,---,0.00,VWS V13.01,2013-02-12 04:53:00,
2013-02-11 22:58:00,37.2,9.4,25.25,NNW,337,3.6,3.6,31,0.00,,---,0.00,VWS V13.01,2013-02-12 04:58:00,
2013-02-11 23:00:00,37.2,9.4,25.25,NNW,333,4.9,4.9,31,0.00,,---,0.00,VWS V13.01,2013-02-12 05:00:00,
2013-02-11 23:05:00,36.5,9.5,25.25,NNW,333,4.9,4.9,32,0.00,,---,0.00,VWS V13.01,2013-02-12 05:05:00,
2013-02-11 23:10:00,35.8,9.5,25.25,NNW,330,5.4,5.4,33,0.00,,---,0.00,VWS V13.01,2013-02-12 05:10:00,
2013-02-11 23:15:00,35.4,9.9,25.25,NNW,330,5.4,5.4,34,0.00,,---,0.00,VWS V13.01,2013-02-12 05:15:00,
2013-02-11 23:20:00,35.6,10.0,25.25,NW,311,4.0,4.0,34,0.00,,---,0.00,VWS V13.01,2013-02-12 05:20:00,
2013-02-11 23:25:00,35.6,10.0,25.25,NW,323,3.1,3.1,34,0.00,,---,0.00,VWS V13.01,2013-02-12 05:25:00,
2013-02-11 23:30:00,36.0,9.7,25.25,NNW,328,2.7,2.7,33,0.00,,---,0.00,VWS V13.01,2013-02-12 05:30:00,
2013-02-11 23:35:00,35.2,9.7,25.25,NNW,333,0.0,0.0,34,0.00,,---,0.00,VWS V13.01,2013-02-12 05:35:00,
2013-02-11 23:40:00,35.2,9.7,25.22,NNW,333,0.0,0.0,34,0.00,,---,0.00,VWS V13.01,2013-02-12 05:40:00,
2013-02-11 23:45:00,35.8,10.2,25.22,NNW,327,2.7,2.7,34,0.00,,---,0.00,VWS V13.01,2013-02-12 05:45:00,
2013-02-11 23:50:00,35.8,10.2,25.22,NNW,327,2.7,2.7,34,0.00,,---,0.00,VWS V13.01,2013-02-12 05:50:00,
2013-02-11 23:55:00,35.2,9.7,25.22,NNW,327,2.7,2.7,34,0.00,,---,0.00,VWS V13.01,2013-02-12 05:55:00,